Starlink 3313

operational
NORAD ID: 50157 Int'l Des: 2021-125 Owner: SPXS Country: US Constellation: starlink
LEOCIRCULAR

关于 Starlink 3313

正在加载描述...

实时位置

正在加载3D地球...

即将过境

高度历史

Altitude vs Time

uPlot chart will show altitude changes over time

两行轨道根数

1 50157U 21125B 25259.25002315 .00441839 00000-0 35439-2 0 9995
2 50157 53.2168 306.1582 0000991 65.2251 312.8665 15.69136470 5963
Epoch: Sep 16, 2025 • Age: 9 hours

当前状态

高度 361.0 km
速度 7.70 km/s
星下点 26.16°N, 101.32°E
发射日期 Dec 18, 2021
运行时间 3.7 years
类型 internet

技术详情

分类 Payload
质量 290.00 kg
干质量 270.00 kg
总质量 290.00 kg
长度 0.20 m
直径 2.80 m
跨度 9.00 m
形状 Box + pan
制造商 SPXS
平台类型 Starlink
阶段状态 In Orbit
所有者/国家 SPXS/US

大型星座

Loading constellations...